{"data":{"norad_id":69505,"intl_designator":"2026-132D","name":"HORN-L","alt_names":[],"object_type":"PAYLOAD","status":"ACTIVE","operator":null,"country":"JPN","launch_date":"2026-06-12","launch_site_code":"TANSC","launch_vehicle":null,"mission":null,"orbit_class":"UNKNOWN","rcs_meters":null,"size_class":null,"mass_kg":null,"dimensions":null,"purposes":[],"wikipedia_slug":null,"has_3d_model":false,"image_url":null,"decayed_at":null,"tle_current":{"epoch":"2026-08-26T03:09:37.183968Z","epoch_age_seconds":2225226,"freshness":"OLD","line1":"1 69505U 26132D   26238.13168037  .08374329  00000+0  38270-1 0  9995","line2":"2 69505  97.6680 303.2498 0020976 277.1180  82.7701 15.78722435 11395","mean_motion":15.78722435,"eccentricity":0.0020976,"inclination_deg":97.668,"raan_deg":303.2498,"arg_perigee_deg":277.118,"mean_anomaly_deg":82.7701,"bstar":0.03827,"rev_number":1139,"period_min":91.212994005498,"perigee_km":319.97987597013,"apogee_km":348.13888221971,"semimajor_km":6712.1963790949,"source":"CELESTRAK","updated_at":"2026-08-27T09:00:30.035631Z"}}}